weather.gov     
National Weather Service

Terminal Aerodrome Forecast
NWS Homepage
This page is being discontinued on March 12, 2014.
The same data is available at this site. Please update your bookmarks.
Thank you, and we apologize for the inconvenience.
Please send an email to SR-SRH.Webmaster@noaa.gov with any concerns.


Current Version
Previous Version:    01  02  03  04  05  06  07  08  09  10  11  12  13  14  15  16  17  18  19  20  21  22  23  24  25  26  27  28  29  30  
   31  32  33  34  35  36  37  38  39  40  41  
[Printable]
015
FTUS43 KMPX 232300 RRA
TAFRNH
TAF
KRNH 232343Z 2400/2424 32007KT 6SM BR SCT025 OVC035
     FM240200 31009KT 5SM -RA BR OVC025
     FM240600 31011KT 2SM -SN BR OVC015
     FM240800 31014G23KT P6SM OVC015
     FM241400 31016G28KT 6SM -SHSN OVC012=


U.S. Dept. of Commerce
NOAA National Weather Service
1325 East West Highway
Silver Spring, MD 20910
E-mail: w-nws.webmaster@noaa.gov
Page last modified: May 16, 2007
NATIONAL WEATHER SERVICE: for Safety, for Work, for Fun - FOR LIFE